Wetbulb
73.51 72.82 72.71 72.96 71.77 70.98 70.55 70.79 71.96 71.27 71.17 70.60 69.74 69.50 69.32 67.40 66.63 67.15 66.38 66.41 65.61 64.39
72.69 72.65 71.68 71.98 71.83 70.07 70.93 70.12 71.30 71.00 70.10 69.49 69.26 68.84 68.36 66.32 66.60 66.64 66.80 66.79 66.53 65.80
71.52 71.52 71.52 71.17 70.01 70.05 70.57 70.36 70.32 70.01 69.09 68.87 68.32 67.92 67.52 66.53 66.93 66.06 66.46 65.74 65.19 65.69
70.14 70.03 70.07 69.65 70.11 70.29 70.48 69.97 69.08 68.54 68.19 67.52 67.35 67.30 67.03 66.75 66.26 66.11 66.13 64.55 62.21 65.20
69.54 69.74 69.78 69.40 69.68 69.86 69.05 68.66 67.92 67.32 66.78 66.56 66.20 67.20 66.76 66.26 65.67 65.75 65.13 62.08 61.66 62.77
68.84 69.13 68.95 69.04 68.88 68.29 67.51 67.16 66.97 66.58 66.26 66.07 66.32 66.68 66.93 66.23 65.77 65.49 65.06 61.97 61.00 61.68
68.14 67.98 67.98 68.11 67.68 67.33 67.20 66.67 66.67 66.95 66.53 66.72 66.51 66.48 66.34 65.86 65.44 63.66 62.33 61.37 60.56 61.00
66.99 67.74 67.86 67.52 67.25 67.43 66.95 66.68 66.92 66.86 66.76 66.75 66.48 65.92 65.93 65.73 65.59 64.71 60.97 61.48 61.19 62.01
66.92 67.24 67.44 67.27 67.22 66.64 66.48 66.95 66.95 66.35 66.31 65.95 65.14 48.29 49.64 57.52 66.07 64.19 61.42 60.37 61.92 62.50
66.64 66.53 66.74 66.61 66.31 65.84 66.53 67.23 66.47 66.55 65.94 65.34 65.26 48.05 48.54 51.31 65.93 64.76 61.81 60.90 61.10 60.68
66.01 65.74 66.10 66.10 65.94 66.17 66.52 66.39 66.57 66.20 65.59 65.54 63.00 48.00 47.81 51.62 65.45 64.76 63.76 61.69 61.39 60.24
65.73 65.59 65.31 65.22 65.65 66.46 66.12 66.38 66.42 66.05 65.35 64.93 62.95 46.73 47.27 54.13 64.98 64.35 63.43 61.90 60.70 60.56
65.51 65.81 65.04 65.81 65.86 66.46 66.62 66.40 65.85 65.12 64.65 57.39 62.53 46.17 47.63 57.32 63.63 63.50 61.73 60.38 58.85 52.17
65.70 66.34 66.63 66.59 66.41 66.28 65.50 65.83 65.35 64.59 63.20 62.53 62.05 58.30 46.55 49.99 64.06 62.78 60.01 59.57 56.48 55.05
MSLP
999.28 999.56 1000.01 1000.32 1000.91 1001.48 1002.24 1003.03 1004.28 1004.66 1005.15 1005.49 1006.04 1006.37 1006.72 1006.82 1007.10 1007.52 1007.86 1007.98 1008.26 1008.40
999.12 999.50 999.97 1000.79 1001.40 1001.98 1002.46 1003.23 1004.11 1004.64 1005.12 1005.60 1005.91 1006.18 1006.53 1006.36 1007.08 1007.40 1007.67 1007.74 1008.29 1008.54
999.42 999.88 1000.62 1001.23 1001.60 1002.33 1002.91 1003.38 1004.09 1004.62 1005.13 1005.45 1005.69 1006.02 1006.38 1006.36 1006.85 1007.19 1007.37 1007.62 1008.21 1008.49
999.58 1000.27 1000.92 1001.52 1002.11 1002.70 1003.23 1003.66 1004.06 1004.50 1004.90 1005.22 1005.59 1005.91 1006.28 1006.26 1006.41 1006.93 1007.44 1008.03 1008.45 1008.08
999.97 1000.59 1001.22 1001.77 1002.30 1002.89 1003.30 1003.73 1004.08 1004.50 1004.78 1005.05 1005.27 1005.68 1006.05 1006.17 1006.33 1006.66 1007.34 1008.11 1008.34 1008.18
1000.29 1000.89 1001.46 1001.97 1002.52 1003.01 1003.48 1003.82 1004.12 1004.38 1004.56 1004.76 1005.01 1005.41 1005.76 1006.03 1006.20 1006.48 1007.24 1008.08 1008.36 1008.38
1000.52 1001.13 1001.65 1002.20 1002.75 1003.16 1003.47 1003.78 1004.07 1004.26 1004.36 1004.63 1005.04 1005.40 1005.52 1005.72 1006.20 1006.99 1007.53 1008.02 1008.48 1008.61
1000.82 1001.36 1001.93 1002.39 1002.80 1003.17 1003.50 1003.68 1003.89 1004.23 1004.50 1004.87 1005.24 1005.35 1005.49 1005.83 1006.58 1007.02 1007.59 1008.01 1008.32 1008.52
1000.98 1001.54 1002.07 1002.57 1002.90 1003.32 1003.52 1003.79 1003.97 1004.29 1004.57 1005.13 1005.37 1006.81 1006.91 1006.82 1006.28 1007.01 1007.64 1007.87 1008.21 1008.41
1001.07 1001.54 1002.10 1002.59 1003.00 1003.37 1003.73 1003.99 1004.21 1004.54 1004.89 1005.32 1005.92 1007.09 1007.21 1007.05 1006.54 1006.84 1007.56 1007.92 1008.20 1008.48
1000.83 1001.48 1002.10 1002.60 1002.98 1003.47 1003.99 1004.31 1004.61 1004.86 1005.13 1005.55 1006.51 1007.22 1007.27 1007.06 1006.74 1006.92 1007.29 1007.91 1008.24 1008.57
1000.74 1001.45 1002.08 1002.55 1003.05 1003.60 1004.04 1004.46 1004.68 1005.00 1005.32 1006.04 1006.90 1007.48 1007.49 1007.32 1006.74 1006.88 1007.41 1008.07 1008.46 1008.79
1000.77 1001.39 1002.01 1002.53 1003.18 1003.71 1004.20 1004.45 1004.74 1005.23 1006.10 1006.90 1007.16 1007.69 1007.63 1007.32 1007.17 1007.18 1007.80 1008.39 1008.75 1009.12
1001.02 1001.45 1001.92 1002.64 1003.37 1003.84 1004.09 1004.54 1004.98 1005.41 1006.45 1006.93 1007.21 1007.86 1007.89 1007.74 1007.17 1007.34 1008.13 1008.61 1009.17 1009.64
Wind_Speed
13 10 11 10 11 9 9 10 13 9 9 8 9 7 7 7 6 7 7 8 6 6
12 13 11 13 10 9 9 9 11 10 9 9 8 7 7 5 7 7 7 6 7 7
13 13 13 12 11 11 10 10 10 10 8 8 7 8 7 6 8 8 6 6 5 6
14 14 13 12 11 11 10 9 9 8 9 9 8 8 7 6 7 9 7 4 5 7
15 14 13 12 11 10 9 9 9 9 9 8 8 8 8 9 8 9 8 6 3 3
14 13 12 11 10 10 10 10 9 8 8 8 7 7 8 7 8 6 7 7 5 4
13 12 11 11 11 11 10 10 9 8 8 7 6 6 6 5 4 3 6 5 4 4
12 12 12 11 11 10 10 9 9 8 6 5 4 1 3 5 6 7 6 5 4 4
12 12 11 11 11 10 10 9 8 7 6 5 2 6 5 7 4 9 7 5 5 4
11 10 10 11 12 11 10 8 7 6 5 4 6 4 3 7 2 6 6 5 4 3
10 10 10 11 11 10 8 8 7 5 5 4 6 3 3 6 5 6 7 6 5 5
10 10 11 11 11 9 9 8 6 5 5 5 6 2 2 6 4 6 8 6 6 6
10 11 11 11 11 9 8 8 6 7 8 6 7 2 1 1 3 5 5 5 5 8
9 10 10 10 8 9 9 8 7 9 7 5 5 5 1 4 2 5 4 5 3 3
Wind_Direction
154 154 146 152 138 147 159 161 156 165 170 168 178 179 185 185 203 199 212 213 222 244
147 146 129 130 147 148 138 133 162 165 166 173 178 179 172 207 202 203 215 205 217 226
137 129 133 136 138 145 134 147 155 159 168 176 176 181 189 180 196 201 202 202 202 214
130 130 134 137 139 140 143 147 158 165 174 174 177 184 192 206 183 208 196 170 233 228
131 133 135 138 139 142 143 153 152 162 169 174 180 184 198 210 211 210 184 175 192 254
135 137 137 138 138 142 145 147 153 164 172 181 188 185 209 220 216 205 172 162 163 239
136 136 137 138 144 148 149 151 160 169 168 165 183 191 213 202 179 134 107 160 193 207
135 138 141 146 152 147 152 158 160 161 158 149 175 150 282 188 163 151 145 172 202 220
142 145 146 151 151 154 153 160 157 157 151 145 126 58 340 310 165 156 156 171 197 215
147 149 154 159 154 159 163 161 152 146 133 135 116 55 302 280 214 142 158 159 157 161
156 150 155 160 162 159 156 157 152 138 126 128 82 38 219 249 144 158 141 136 147 139
149 153 156 165 165 157 154 155 147 126 132 102 89 92 228 271 137 123 123 127 135 139
153 158 166 158 157 157 156 156 141 128 91 86 113 136 264 290 88 96 98 99 120 136
154 162 158 155 150 158 163 147 139 115 98 100 109 116 28 337 225 135 119 124 116 118